SCP
0 0 0 0 0 0 0 0 0 0 0 0 0 0 0 0 0 0 0 0 0 0 0 0 0 0 0 0 0 0 0 0 0 0 0 0 0 0 0 0 0 0 0 0
0 0 0 0 0 0 0 0 0 0 0 0 0 0 0 0 0 0 0 0 0 0 0 0 0 0 0 0 0 0 0 0 0 0 0 0 0 0 0 0 0 0 0 0
0 0 0 0 0 0 0 0 0 0 0 0 0 0 0 0 0 0 0 0 0 0 0 0 0 0 0 0 0 0 0 0 0 0 0 0 0 0 0 0 0 0 0 0
0 0 0 0 0 0 0 0 0 0 0 0 0 0 0 0 0 0 0 0 0 0 0 0 0 0 0 0 0 0 0 0 0 0 0 0 0 0 0 0 0 0 0 0
0 0 0 0 0 0 0 0 0 0 0 0 0 0 0 0 0 0 0 0 0 0 0 0 0 0 0 0 0 0 0 0 0 0 0 0 0 0 0 0 0 0 0 0
0 0 0 0 0 0 0 0 0 0 0 0 0 0 0 0 0 0 0 0 0 0 0 0 0 0 0 0 0 0 0 0 0 0 0 0 0 0 0 0 0 0 0 0
0 0 0 0 0 0 0 0 0 0 0 0 0 0 0 0 0 0 0 0 0 0 0 0 0 0 0 0 0 0 0 0 0 0 0 0 0 0 0 0 0 0 0 0
0 0 0 0 0 0 0 0 0 0 0 0 0 0 0 0 0 0 0 0 0 0 0 0 0 0 0 0 0 0 0 0 0 0 0 0 0 0 0 0 0 0 0 0
0 0 0 0 0 0 0 0 0 0 0 0 0 0 0 0 0 0 0 0 0 0 0 0 0 0 0 0 0 0 0 0 0 0 0 0 0 0 0 0 0 0 0 0
0 0 0 0 0 0 0 0 0 0 0 0 0 0 0 0 0 0 0 0 0 0 0 0 0 0 0 0 0 0 0 0 0 0 0 0 0 0 0 0 0 0 0 0
0 0 0 0 0 0 0 0 0 0 0 0 0 0 0 0 0 0 0 0 0 0 0 0 0 0 0 0 0 0 0 0 0 0 0 0 0 0 0 0 0 0 0 0
0 0 0 0 0 0 0 0 0 0 0 0 0 0 0 0 0 0 0 0 0 0 0 0 0 0 0 0 0 0 0 0 0 0 0 0 0 0 0 0 0 0 0 0
0 0 0 0 0 0 0 0 0 0 0 0 0 0 0 0 0 0 0 0 0 0 0 0 0 0 0 0 0 0 0 0 0 0 0 0 0 0 0 0 0 0 0 0
0 0 0 0 0 0 0 0 0 0 0 0 0 0 0 0 0 0 0 0 0 0 0 0 0 0 0 0 0 0 0 0 0 0 0 0 0 0 0 0 0 0 0 0
0 0 0 0 0 0 0 0 0 0 0 0 0 0 0 0 0 0 0 0 0 0 0 0 0 0 0 0 0 0 0 0 0 0 0 0 0 0 0 0 0 0 0 0
0 0 0 0 0 0 0 0 0 0 0 0 0 0 0 0 0 0 0 0 0 0 0 0 0 0 0 0 0 0 0 0 0 0 0 0 0 0 0 0 0 0 0 0
0 0 0 0 0 0 0 0 0 0 0 0 0 0 0 0 0 0 0 0 0 0 0 0 0 0 0 0 0 0 0 0 0 0 0 0 0 0 0 0 0 0 0 0
0 0 0 0 0 0 0 0 0 0 0 0 0 0 0 0 0 0 0 0 0 0 0 0 0 0 0 0 0 0 0 0 0 0 0 0 0 0 0 0 0 0 0 0
0 0 0 0 0 0 0 0 0 0 0 0 0 0 0 0 0 0 0 0 0 0 0 0 0 0 0 0 0 0 0 0 0 0 0 0 0 0 0 0 0 0 0 0
0 0 0 0 0 0 0 0 0 0 0 0 0 0 0 0 0 0 0 0 0 0 0 0 0 0 0 0 0 0 0 0 0 0 0 0 0 0 0 0 0 0 0 0
0 0 0 0 0 0 0 0 0 0 0 0 0 0 0 0 0 0 0 0 0 0 0 0 0 0 0 0 0 0 0 0 0 0 0 0 0 0 0 0 0 0 0 0
0 0 0 0 0 0 0 0 0 0 0 0 0 0 0 0 0 0 0 0 0 0 0 0 0 0 0 0 0 0 0 0 0 0 0 0 0 0 0 0 0 0 0 0
0 0 0 0 0 0 0 0 0 0 0 0 0 0 0 0 0 0 0 0 0 0 0 0 0 0 0 0 0 0 0 0 0 0 0 0 0 0 0 0 0 0 0 0
0 0 0 0 0 0 0 0 0 0 0 0 0 0 0 0 0 0 0 0 0 0 0 0 0 0 0 0 0 0 0 0 0 0 0 0 0 0 0 0 0 0 0 0
0 0 0 0 0 0 0 0 0 0 0 0 0 0 0 0 0 0 0 0 0 0 0 0 0 0 0 0 0 0 0 0 0 0 0 0 0 0 0 0 0 0 0 0
0 0 0 0 0 0 0 0 0 0 0 0 0 0 0 0 0 0 0 0 0 0 0 0 0 0 0 0 0 0 0 0 0 0 0 0 0 0 0 0 0 0 0 0
Wind_Speed_500mb
18 8 15 24 22 21 18 13 17 7 7 11 18 20 20 46 43 41 47 45 39 34 35 24 20 22 22 22 25 30 32 33 33 35 35 33 31 29 27 23 20 19 17 15
6 19 25 18 17 12 18 18 19 16 15 6 14 22 18 33 46 64 61 54 48 44 36 28 27 30 31 32 35 38 41 44 43 35 33 36 33 31 28 28 27 24 20 18
21 6 11 26 10 11 15 15 13 15 9 8 12 17 26 23 51 56 57 55 52 57 41 34 37 40 38 39 42 46 47 43 40 37 34 34 35 36 35 33 30 26 20 16
20 33 5 11 16 16 16 14 21 13 7 8 13 11 13 17 27 35 57 57 60 54 42 42 43 46 48 49 48 45 43 40 38 38 41 41 38 36 32 28 23 18 15 12
9 13 18 15 12 16 7 10 1 6 11 9 10 15 12 25 33 31 46 57 52 55 54 52 52 52 55 52 51 51 51 51 52 51 44 37 33 29 27 23 19 15 13 10
8 1 8 10 9 2 18 9 5 3 1 12 26 26 12 25 31 18 37 58 61 61 58 55 55 56 58 60 59 59 58 56 51 45 39 33 29 28 26 22 16 12 10 7
12 18 9 9 9 8 11 12 3 5 2 14 2 20 32 9 7 12 39 60 69 68 68 65 67 66 66 66 65 63 59 56 50 43 37 33 31 27 23 19 14 9 7 6
22 11 33 19 25 14 18 17 11 14 9 8 6 14 12 1 13 5 49 65 70 73 73 75 72 73 72 71 69 67 63 57 52 44 40 35 31 28 24 18 14 9 6 2
13 14 12 12 10 14 11 17 20 9 2 3 11 14 16 10 6 3 40 59 65 73 74 75 74 76 77 76 74 70 66 59 51 45 40 36 32 29 25 20 16 13 8 4
5 6 3 7 11 8 8 9 8 4 5 12 10 19 20 12 22 16 27 53 63 70 74 77 80 82 80 76 73 70 65 58 52 47 43 38 35 31 28 24 20 17 13 9
9 4 3 12 17 25 8 8 10 9 9 8 9 15 7 28 30 36 34 57 67 75 82 84 86 87 84 80 79 76 71 66 58 51 47 42 37 35 32 27 24 20 17 15
21 2 10 19 7 0 9 15 18 9 12 13 4 40 8 12 20 38 48 60 70 80 85 85 87 89 87 87 84 80 77 71 61 55 50 45 42 38 35 31 29 25 25 21
23 10 1 8 3 4 12 17 32 27 3 41 10 30 7 11 9 36 45 58 69 73 75 80 83 91 95 93 90 87 81 74 66 59 53 48 45 41 39 37 34 33 30 26
43 11 21 35 13 16 14 23 35 37 21 13 50 38 7 9 11 18 46 62 66 72 78 80 83 90 94 96 94 90 85 79 71 65 56 53 47 44 43 40 40 38 35 31
25 22 23 43 37 12 12 20 39 48 57 31 54 48 41 20 24 45 52 56 62 69 79 87 89 91 92 93 92 90 86 81 74 67 59 53 49 47 46 47 47 44 40 36
2 17 23 44 25 29 38 29 35 45 49 53 61 68 9 41 54 35 53 60 60 71 83 85 84 83 86 89 91 91 88 84 75 69 62 57 54 52 52 53 50 48 45 43
14 6 10 38 17 26 22 70 46 48 51 47 51 72 22 22 19 41 52 59 61 63 73 77 80 80 78 80 82 85 82 77 74 69 62 58 56 56 56 56 53 52 51 49
21 27 16 21 11 23 24 19 52 57 60 50 54 11 10 23 43 54 63 69 67 60 55 58 62 60 64 68 68 70 68 71 70 63 58 55 56 55 57 56 54 53 54 54
31 25 14 14 25 27 29 10 18 24 51 47 49 28 21 26 27 16 39 46 43 34 30 19 20 33 50 64 70 63 61 64 60 56 52 49 52 57 56 55 53 54 55 57
5 34 25 8 14 22 7 8 3 16 33 24 38 35 22 39 19 9 45 29 25 25 29 43 51 55 53 53 61 61 58 54 50 45 38 41 46 49 50 49 51 53 55 56
7 10 30 29 15 9 9 11 5 12 11 5 8 30 41 21 11 34 33 32 36 42 48 44 41 43 39 39 45 48 43 38 29 29 32 32 32 33 37 42 48 51 53 55
13 14 8 9 8 17 15 2 18 6 3 6 18 32 38 20 24 28 36 47 47 43 42 40 40 41 36 32 30 29 27 23 27 30 30 28 28 34 41 43 45 47 48 50
9 11 10 13 6 2 13 2 5 6 13 15 22 29 41 38 34 38 43 46 47 45 43 42 39 36 31 26 22 22 21 26 30 35 36 32 34 38 42 45 48 50 53 56
5 3 4 8 3 4 13 15 13 9 8 9 8 24 33 36 38 40 46 49 48 47 44 40 35 29 23 21 22 24 28 33 38 43 45 40 39 41 44 48 54 60 62 62
5 12 9 3 3 3 22 30 25 15 9 7 11 18 28 32 35 41 50 49 47 43 36 31 28 25 21 24 27 30 33 37 47 54 54 52 48 47 49 52 57 60 60 60
10 10 8 7 21 10 20 47 44 36 33 22 18 15 20 25 36 42 42 42 41 38 33 27 25 24 25 27 32 36 40 43 48 58 60 56 55 55 57 59 60 60 60 58
Wind_Direction_500mb
196 206 206 212 217 248 290 303 297 287 143 190 223 244 230 194 205 216 202 201 207 208 224 222 209 191 184 165 153 148 145 147 152 162 169 170 166 170 172 168 158 149 143 136
106 234 237 234 244 249 239 262 265 286 128 191 267 265 263 184 206 208 210 200 198 200 215 207 194 184 181 172 155 150 152 155 162 164 166 171 176 169 163 148 141 134 129 125
207 191 226 229 225 230 244 238 250 244 153 224 293 272 254 251 221 209 215 209 200 206 208 198 189 186 181 174 168 166 170 169 169 173 177 173 163 154 147 141 137 129 122 112
234 246 202 211 212 188 247 221 230 258 310 240 148 280 260 269 241 197 204 200 192 193 204 199 189 186 184 180 178 176 173 173 170 164 162 162 156 153 147 143 135 126 111 93
210 166 163 198 189 192 217 30 107 235 249 300 266 272 252 223 252 217 194 190 190 193 199 196 192 189 188 184 180 174 170 165 160 160 161 160 161 162 158 153 146 132 111 87
244 351 202 198 64 23 129 90 90 33 205 254 228 226 225 238 229 218 185 188 190 186 192 195 189 188 181 179 175 170 167 165 166 166 165 168 173 172 169 162 154 143 128 106
209 217 174 154 104 17 170 135 252 293 232 242 284 225 245 251 315 202 182 182 185 187 188 191 190 184 179 176 174 172 172 172 171 171 172 174 178 177 173 169 159 153 132 95
197 222 175 191 208 161 188 182 162 234 213 265 332 237 243 306 62 190 183 177 180 184 189 195 191 185 181 179 178 179 179 180 179 180 182 182 182 186 187 183 179 176 170 146
192 227 101 135 192 159 181 213 227 352 58 334 218 261 283 166 158 132 155 167 177 182 188 196 192 188 186 185 185 185 185 186 186 187 188 188 191 196 197 192 191 195 200 220
269 213 3 62 76 317 197 161 102 195 237 246 247 248 242 225 220 190 186 180 179 181 188 198 195 193 192 191 190 190 192 193 193 192 194 197 199 198 201 201 204 207 215 229
176 163 114 122 204 178 134 214 220 168 188 225 279 257 302 201 197 194 194 187 184 184 192 199 198 198 197 196 197 197 197 199 197 196 198 201 203 206 205 208 212 217 222 231
184 165 173 207 123 130 223 184 192 170 225 235 217 258 12 7 186 179 187 187 188 195 197 200 200 201 201 203 203 203 204 204 203 203 203 202 205 208 211 215 219 223 230 236
166 184 158 313 93 18 199 200 207 218 69 233 198 256 333 11 77 176 175 185 190 193 197 200 202 205 206 208 208 209 209 208 207 208 208 207 210 212 217 222 225 228 231 235
160 159 196 228 222 144 194 202 209 203 227 201 233 247 220 218 194 181 189 192 191 193 196 201 205 209 212 213 213 212 213 213 212 212 213 217 219 220 223 227 230 231 234 239
178 212 221 241 238 231 189 198 206 210 224 213 251 242 240 223 202 210 200 188 185 191 195 203 207 211 214 216 218 217 218 218 216 217 219 224 226 226 229 232 233 234 239 241
290 234 212 246 225 239 252 240 211 222 231 239 251 255 203 239 212 179 187 184 187 192 201 205 209 211 215 219 220 220 220 220 219 222 225 228 230 231 234 238 238 239 241 245
147 136 165 246 209 242 250 235 231 228 226 222 238 249 212 232 184 187 187 186 194 202 206 208 210 214 217 222 224 223 221 221 225 226 228 232 234 236 239 242 242 242 245 250
181 194 200 247 146 219 247 197 218 226 235 225 240 237 189 224 220 209 200 198 200 206 210 215 216 217 223 225 229 229 224 226 227 230 232 234 237 241 241 242 243 245 249 255
191 184 214 223 228 260 280 182 148 182 244 227 235 236 185 179 161 188 180 192 195 196 206 217 242 243 243 232 227 228 223 223 226 230 236 239 243 243 242 244 247 249 253 260
190 198 204 171 223 228 294 306 137 99 262 192 205 218 159 150 191 204 186 184 194 219 242 262 244 230 228 221 222 222 220 222 227 233 241 244 244 244 246 249 251 255 258 264
158 193 208 219 229 268 216 232 144 144 245 300 234 164 156 186 201 187 201 218 242 242 226 214 209 210 209 206 205 209 215 221 233 233 235 235 236 239 244 249 252 256 260 263
168 173 193 215 232 248 177 35 169 210 53 167 155 166 166 164 155 172 190 195 194 191 187 187 184 185 186 185 192 203 217 226 224 225 226 226 235 247 247 249 252 254 258 264
198 193 186 201 203 256 168 247 169 141 145 151 165 174 186 170 169 169 173 180 181 182 176 173 176 177 180 189 203 221 229 230 234 230 224 232 247 248 250 251 255 258 261 263
242 180 151 135 184 186 211 177 184 143 121 139 171 191 191 182 176 173 171 171 171 173 173 175 177 186 196 211 224 232 234 235 234 228 231 241 247 252 256 260 262 262 262 264
170 141 135 24 319 312 252 221 204 204 231 263 208 189 191 191 179 177 171 173 176 177 181 191 200 206 214 222 231 244 249 247 240 236 238 243 250 255 259 264 266 265 264 264
192 159 170 219 183 180 205 209 212 219 227 224 215 208 202 192 181 174 178 184 189 194 196 207 215 227 231 235 241 249 255 255 249 244 245 251 257 262 266 267 266 263 263 265
Wind_Speed_850mb
18 8 15 24 22 21 18 13 17 7 7 11 18 20 20 46 43 41 47 45 39 34 35 24 20 22 22 22 25 30 32 33 33 35 35 33 31 29 27 23 20 19 17 15
6 19 25 18 17 12 18 18 19 16 15 6 14 22 18 33 46 64 61 54 48 44 36 28 27 30 31 32 35 38 41 44 43 35 33 36 33 31 28 28 27 24 20 18
21 6 11 26 10 11 15 15 13 15 9 8 12 17 26 23 51 56 57 55 52 57 41 34 37 40 38 39 42 46 47 43 40 37 34 34 35 36 35 33 30 26 20 16
20 33 5 11 16 16 16 14 21 13 7 8 13 11 13 17 27 35 57 57 60 54 42 42 43 46 48 49 48 45 43 40 38 38 41 41 38 36 32 28 23 18 15 12
9 13 18 15 12 16 7 10 1 6 11 9 10 15 12 25 33 31 46 57 52 55 54 52 52 52 55 52 51 51 51 51 52 51 44 37 33 29 27 23 19 15 13 10
8 1 8 10 9 2 18 9 5 3 1 12 26 26 12 25 31 18 37 58 61 61 58 55 55 56 58 60 59 59 58 56 51 45 39 33 29 28 26 22 16 12 10 7
12 18 9 9 9 8 11 12 3 5 2 14 2 20 32 9 7 12 39 60 69 68 68 65 67 66 66 66 65 63 59 56 50 43 37 33 31 27 23 19 14 9 7 6
22 11 33 19 25 14 18 17 11 14 9 8 6 14 12 1 13 5 49 65 70 73 73 75 72 73 72 71 69 67 63 57 52 44 40 35 31 28 24 18 14 9 6 2
13 14 12 12 10 14 11 17 20 9 2 3 11 14 16 10 6 3 40 59 65 73 74 75 74 76 77 76 74 70 66 59 51 45 40 36 32 29 25 20 16 13 8 4
5 6 3 7 11 8 8 9 8 4 5 12 10 19 20 12 22 16 27 53 63 70 74 77 80 82 80 76 73 70 65 58 52 47 43 38 35 31 28 24 20 17 13 9
9 4 3 12 17 25 8 8 10 9 9 8 9 15 7 28 30 36 34 57 67 75 82 84 86 87 84 80 79 76 71 66 58 51 47 42 37 35 32 27 24 20 17 15
21 2 10 19 7 0 9 15 18 9 12 13 4 40 8 12 20 38 48 60 70 80 85 85 87 89 87 87 84 80 77 71 61 55 50 45 42 38 35 31 29 25 25 21
23 10 1 8 3 4 12 17 32 27 3 41 10 30 7 11 9 36 45 58 69 73 75 80 83 91 95 93 90 87 81 74 66 59 53 48 45 41 39 37 34 33 30 26
43 11 21 35 13 16 14 23 35 37 21 13 50 38 7 9 11 18 46 62 66 72 78 80 83 90 94 96 94 90 85 79 71 65 56 53 47 44 43 40 40 38 35 31
25 22 23 43 37 12 12 20 39 48 57 31 54 48 41 20 24 45 52 56 62 69 79 87 89 91 92 93 92 90 86 81 74 67 59 53 49 47 46 47 47 44 40 36
2 17 23 44 25 29 38 29 35 45 49 53 61 68 9 41 54 35 53 60 60 71 83 85 84 83 86 89 91 91 88 84 75 69 62 57 54 52 52 53 50 48 45 43
14 6 10 38 17 26 22 70 46 48 51 47 51 72 22 22 19 41 52 59 61 63 73 77 80 80 78 80 82 85 82 77 74 69 62 58 56 56 56 56 53 52 51 49
21 27 16 21 11 23 24 19 52 57 60 50 54 11 10 23 43 54 63 69 67 60 55 58 62 60 64 68 68 70 68 71 70 63 58 55 56 55 57 56 54 53 54 54
31 25 14 14 25 27 29 10 18 24 51 47 49 28 21 26 27 16 39 46 43 34 30 19 20 33 50 64 70 63 61 64 60 56 52 49 52 57 56 55 53 54 55 57
5 34 25 8 14 22 7 8 3 16 33 24 38 35 22 39 19 9 45 29 25 25 29 43 51 55 53 53 61 61 58 54 50 45 38 41 46 49 50 49 51 53 55 56
7 10 30 29 15 9 9 11 5 12 11 5 8 30 41 21 11 34 33 32 36 42 48 44 41 43 39 39 45 48 43 38 29 29 32 32 32 33 37 42 48 51 53 55
13 14 8 9 8 17 15 2 18 6 3 6 18 32 38 20 24 28 36 47 47 43 42 40 40 41 36 32 30 29 27 23 27 30 30 28 28 34 41 43 45 47 48 50
9 11 10 13 6 2 13 2 5 6 13 15 22 29 41 38 34 38 43 46 47 45 43 42 39 36 31 26 22 22 21 26 30 35 36 32 34 38 42 45 48 50 53 56
5 3 4 8 3 4 13 15 13 9 8 9 8 24 33 36 38 40 46 49 48 47 44 40 35 29 23 21 22 24 28 33 38 43 45 40 39 41 44 48 54 60 62 62
5 12 9 3 3 3 22 30 25 15 9 7 11 18 28 32 35 41 50 49 47 43 36 31 28 25 21 24 27 30 33 37 47 54 54 52 48 47 49 52 57 60 60 60
10 10 8 7 21 10 20 47 44 36 33 22 18 15 20 25 36 42 42 42 41 38 33 27 25 24 25 27 32 36 40 43 48 58 60 56 55 55 57 59 60 60 60 58
Wind_Direction_850mb
196 206 206 212 217 248 290 303 297 287 143 190 223 244 230 194 205 216 202 201 207 208 224 222 209 191 184 165 153 148 145 147 152 162 169 170 166 170 172 168 158 149 143 136
106 234 237 234 244 249 239 262 265 286 128 191 267 265 263 184 206 208 210 200 198 200 215 207 194 184 181 172 155 150 152 155 162 164 166 171 176 169 163 148 141 134 129 125
207 191 226 229 225 230 244 238 250 244 153 224 293 272 254 251 221 209 215 209 200 206 208 198 189 186 181 174 168 166 170 169 169 173 177 173 163 154 147 141 137 129 122 112
234 246 202 211 212 188 247 221 230 258 310 240 148 280 260 269 241 197 204 200 192 193 204 199 189 186 184 180 178 176 173 173 170 164 162 162 156 153 147 143 135 126 111 93
210 166 163 198 189 192 217 30 107 235 249 300 266 272 252 223 252 217 194 190 190 193 199 196 192 189 188 184 180 174 170 165 160 160 161 160 161 162 158 153 146 132 111 87
244 351 202 198 64 23 129 90 90 33 205 254 228 226 225 238 229 218 185 188 190 186 192 195 189 188 181 179 175 170 167 165 166 166 165 168 173 172 169 162 154 143 128 106
209 217 174 154 104 17 170 135 252 293 232 242 284 225 245 251 315 202 182 182 185 187 188 191 190 184 179 176 174 172 172 172 171 171 172 174 178 177 173 169 159 153 132 95
197 222 175 191 208 161 188 182 162 234 213 265 332 237 243 306 62 190 183 177 180 184 189 195 191 185 181 179 178 179 179 180 179 180 182 182 182 186 187 183 179 176 170 146
192 227 101 135 192 159 181 213 227 352 58 334 218 261 283 166 158 132 155 167 177 182 188 196 192 188 186 185 185 185 185 186 186 187 188 188 191 196 197 192 191 195 200 220
269 213 3 62 76 317 197 161 102 195 237 246 247 248 242 225 220 190 186 180 179 181 188 198 195 193 192 191 190 190 192 193 193 192 194 197 199 198 201 201 204 207 215 229
176 163 114 122 204 178 134 214 220 168 188 225 279 257 302 201 197 194 194 187 184 184 192 199 198 198 197 196 197 197 197 199 197 196 198 201 203 206 205 208 212 217 222 231
184 165 173 207 123 130 223 184 192 170 225 235 217 258 12 7 186 179 187 187 188 195 197 200 200 201 201 203 203 203 204 204 203 203 203 202 205 208 211 215 219 223 230 236
166 184 158 313 93 18 199 200 207 218 69 233 198 256 333 11 77 176 175 185 190 193 197 200 202 205 206 208 208 209 209 208 207 208 208 207 210 212 217 222 225 228 231 235
160 159 196 228 222 144 194 202 209 203 227 201 233 247 220 218 194 181 189 192 191 193 196 201 205 209 212 213 213 212 213 213 212 212 213 217 219 220 223 227 230 231 234 239
178 212 221 241 238 231 189 198 206 210 224 213 251 242 240 223 202 210 200 188 185 191 195 203 207 211 214 216 218 217 218 218 216 217 219 224 226 226 229 232 233 234 239 241
290 234 212 246 225 239 252 240 211 222 231 239 251 255 203 239 212 179 187 184 187 192 201 205 209 211 215 219 220 220 220 220 219 222 225 228 230 231 234 238 238 239 241 245
147 136 165 246 209 242 250 235 231 228 226 222 238 249 212 232 184 187 187 186 194 202 206 208 210 214 217 222 224 223 221 221 225 226 228 232 234 236 239 242 242 242 245 250
181 194 200 247 146 219 247 197 218 226 235 225 240 237 189 224 220 209 200 198 200 206 210 215 216 217 223 225 229 229 224 226 227 230 232 234 237 241 241 242 243 245 249 255
191 184 214 223 228 260 280 182 148 182 244 227 235 236 185 179 161 188 180 192 195 196 206 217 242 243 243 232 227 228 223 223 226 230 236 239 243 243 242 244 247 249 253 260
190 198 204 171 223 228 294 306 137 99 262 192 205 218 159 150 191 204 186 184 194 219 242 262 244 230 228 221 222 222 220 222 227 233 241 244 244 244 246 249 251 255 258 264
158 193 208 219 229 268 216 232 144 144 245 300 234 164 156 186 201 187 201 218 242 242 226 214 209 210 209 206 205 209 215 221 233 233 235 235 236 239 244 249 252 256 260 263
168 173 193 215 232 248 177 35 169 210 53 167 155 166 166 164 155 172 190 195 194 191 187 187 184 185 186 185 192 203 217 226 224 225 226 226 235 247 247 249 252 254 258 264
198 193 186 201 203 256 168 247 169 141 145 151 165 174 186 170 169 169 173 180 181 182 176 173 176 177 180 189 203 221 229 230 234 230 224 232 247 248 250 251 255 258 261 263
242 180 151 135 184 186 211 177 184 143 121 139 171 191 191 182 176 173 171 171 171 173 173 175 177 186 196 211 224 232 234 235 234 228 231 241 247 252 256 260 262 262 262 264
170 141 135 24 319 312 252 221 204 204 231 263 208 189 191 191 179 177 171 173 176 177 181 191 200 206 214 222 231 244 249 247 240 236 238 243 250 255 259 264 266 265 264 264
192 159 170 219 183 180 205 209 212 219 227 224 215 208 202 192 181 174 178 184 189 194 196 207 215 227 231 235 241 249 255 255 249 244 245 251 257 262 266 267 266 263 263 265